Regional Weather Roundup
Issued by NWS Cleveland, OH

Home | Current Version | Previous Version | Graphics & Text | Print | Product List | Glossary On
Versions: 1 2 3 4 5 6 7 8 9 10 11 12 13 14 15 16 17 18 19 20 21 22 23 24 25 26 27 28 29 30 31 32 33 34 35 36 37 38 39 40 41 42 43 44 45 46 47 48 49 50
000
ASUS41 KCLE 231902
RWRCLE
OHIO REGIONAL WEATHER ROUNDUP
NATIONAL WEATHER SERVICE CLEVELAND, OH
300 PM EDT WED AUG 23 2017

NOTE: "FAIR" INDICATES FEW OR NO CLOUDS BELOW 12,000 FEET WITH NO
SIGNIFICANT WEATHER AND/OR OBSTRUCTIONS TO VISIBILITY.

OHZ001>008-015>018-024>027-034-035-043-044-232000-
   NORTHWEST OHIO

CITY           SKY/WX    TMP DP  RH WIND       PRES   REMARKS
DEFIANCE       PTSUNNY   73  53  49 NW12      29.99S
FINDLAY        MOSUNNY   78  53  41 W12       29.98F
TOLEDO EXPRESS PTSUNNY   76  52  43 W14G22    29.97S
TOLEDO EXEC    PTSUNNY   76  53  44 NW15G23   29.97F
LIMA           PTSUNNY   74  52  46 W13       30.01F
$$

OHZ009>014-019>023-028>033-038-089-232000-
   NORTHEAST OHIO

CITY           SKY/WX    TMP DP  RH WIND       PRES   REMARKS
CLE-HOPKINS    MOSUNNY   73  57  56 NW15G26   29.98S
CLE-LAKEFRONT  SUNNY     75  56  51 W14       29.96S
CUY CO. ARPT   MOSUNNY   73  57  56 W16       29.97S
LORAIN-ELYRIA  MOSUNNY   73  52  47 NW9G18    29.98F
ASHTABULA      SUNNY     73  55  53 W13       29.97R
AKRON-CANTON   PTSUNNY   76  50  40 W10       29.97S
WOOSTER        MOSUNNY   75  54  47 W10       29.98F
MANSFIELD      MOSUNNY   73  53  49 W8        30.00S
YOUNGSTOWN     PTSUNNY   73  52  47 W10       29.95F
$$

OHZ042-051>053-060>062-070>072-077>081-232000-
  SOUTHWEST OHIO

CITY           SKY/WX    TMP DP  RH WIND       PRES   REMARKS
CINC-COVINGTON PTSUNNY   78  55  44 NW8       30.02F
CINC-LUNKEN    MOSUNNY   78  54  43 N8        30.01F
HAMILTON       MOSUNNY   77  56  48 VRB6      30.02F
DAYTON         MOSUNNY   76  50  40 W12       30.03F
WRIGHT-PAT AFB NOT AVBL
DAYTON GENERAL PTSUNNY   77  51  40 NW9       30.01F
WILMINGTON     PTSUNNY   73  55  53 NW8       30.02F
$$

OHZ036-037-039>041-045>050-054>059-063>069-073>076-082>088-232000-
  CENTRAL AND SOUTHEAST OHIO

CITY           SKY/WX    TMP DP  RH WIND       PRES   REMARKS
COLUMBUS       MOSUNNY   75  53  46 NW14      29.99F
OSU AIRPORT    PTSUNNY   76  54  46 W10       29.99F
BOLTON FIELD   MOSUNNY   73  52  46 NW9G16    30.01F
RICKENBACK AFB PTSUNNY   75  53  45 NW12      30.00S
NEWARK         PTSUNNY   75  52  44 NW12      29.99F
MARION         MOSUNNY   74  51  44 W10       30.00F
LANCASTER      PTSUNNY   75  54  47 VRB3      30.01F
ZANESVILLE     MOSUNNY   75  50  41 W3        29.99F
NEW PHILLY     NOT AVBL
$$



USA.gov is the U.S. government's official web portal to all federal, state and local government web resources and services.